Location: Staunton
(38.1490°N, 79.0720°W)
Time: 01:36:19
(UTC-04:00)

ISS - Pass Details

Date: 13 May 2021
Orbit: 417 x 422 km, 51.6° (Epoch: 18 May)

Event Time Altitude Azimuth Distance (km) Brightness Sun altitude
Rises 03:51:35 0° 319° (NW) 2,368 0.2 -22.2°
Reaches altitude 10° 03:54:20 10° 343° (NNW) 1,503 -0.6 -21.8°
Maximum altitude 03:56:26 15° 22° (NNE) 1,216 -0.5 -21.6°
Drops below altitude 10° 03:58:32 10° 60° (ENE) 1,501 0.1 -21.3°
Sets 04:01:17 0° 84° (E) 2,364 0.8 -20.9°
